OpenBCM V1.08-5-g2f4a (Linux)

Packet Radio Mailbox

IZ3LSV

[San Dona' di P. JN]

 Login: GUEST





  
LU9DCE > KEPS     04.03.18 17:10l 260 Lines 12849 Bytes #999 (0) @ WW
BID : 33458_LU9DCE
Read: GUEST
Subj: SAT TLE OF 4
Path: IZ3LSV<ED1ZAC<LU4ECL<VE3UIL<LU9DCE
Sent: 180304/1601Z @:LU9DCE.TOR.BA.ARG.SOAM #:33458 [TORTUGUITAS] FBB7.07
From: LU9DCE@LU9DCE.TOR.BA.ARG.SOAM
To  : KEPS@WW


            __    _  _  ___  ____   ___  ____    ____  ____  ____
           (  )  / )( \/ _ \(    \ / __)(  __)  (  _ \(  _ \/ ___)
           / (_/\) \/ (\__  )) D (( (__  ) _)    ) _ ( ) _ (\___ \
           \____/\____/(___/(____/ \___)(____)  (____/(____/(____/
               ESTACION DE PACKET RADIO - BUENOS AIRES (GF05OM)
                   BOLETINES INFORMATIVOS PROGRAMADOS (BIP)
                    LU9DCE@GMX.COM - RF 147070 @ 1200 BAUD
                           telnet lu9dce.dynu.com
             BBS port 6300 / NODE port 3694 / DXCLUSTER port 9000

+------------------------------------------------------------------------------+
OSCAR 7
1 07530U 74089B   18063.56634494 -.00000044  00000-0  69554-6 0  9996
2 07530 101.6741  32.5124 0012037 176.3109 303.9173 12.53631329981485
OSCAR 11 (UoSAT 2)
1 14781U 84021B   18063.55303248  .00000074  00000-0  15297-4 0  9993
2 14781  97.6634 104.1543 0009899  70.3763 289.8519 14.82984269828932
OSCAR 19 (LUSAT)
1 20442U 90005G   18063.39951794  .00000014  00000-0  21254-4 0  9994
2 20442  98.6016   2.5877 0012907  98.6408 261.6239 14.32888177468889
KITSAT B
1 22825U 93061C   18062.98830010 -.00000009  00000-0  14266-4 0  9997
2 22825  98.8508  37.2654 0007462 297.3370  62.7051 14.30023131274536
POSAT 1
1 22826U 93061D   18062.88955036 -.00000017 +00000-0 +11307-4 0  9995
2 22826 098.8449 037.2159 0007912 286.0261 074.0049 14.30354024274457
RADIO ROSTO
1 23439U 94085A   18062.61908021 -.00000042 +00000-0 +87895-5 0  9990
2 23439 064.8163 159.5689 0160841 200.9401 261.4259 11.27566591954662
JAS 2
1 24278U 96046B   18062.85876511 -.00000036 +00000-0 -76940-6 0  9999
2 24278 098.5274 276.0662 0350780 024.3478 337.3794 13.53082147063740
TECHSAT 1B
1 25397U 98043D   18063.10037082 -.00000013  00000-0  13443-4 0  9993
2 25397  98.6403   5.3344 0001175  20.3175 339.8050 14.23640667 20772
ISS (ZARYA)
1 25544U 98067A   18062.83561485 +.00001773 +00000-0 +33956-4 0  9995
2 25544 051.6409 183.9133 0003140 148.5049 349.9192 15.54178548102136
PCSAT
1 26931U 01043C   18062.85108724 +.00000003 +00000-0 +33112-4 0  9998
2 26931 067.0514 141.2099 0006183 282.7069 077.3341 14.30495664857483
SAUDISAT 1C
1 27607U 02058C   18062.95000228 +.00000001 +00000-0 +20887-4 0  9990
2 27607 064.5553 051.6990 0052807 353.2739 006.7647 14.75424421817309
CUTE-1
1 27844U 03031E   18063.54716124  .00000042  00000-0  38963-4 0  9999
2 27844  98.6893  73.7357 0008981 319.4194  40.6313 14.22097574761326
CUBESAT XI 4
1 27848U 03031J   18063.54781474  .00000023  00000-0  30299-4 0  9996
2 27848  98.6982  74.0983 0009041 330.3318  29.7345 14.21703656761198
MOZHAYETS 4
1 27939U 03042A   18063.52530277  .00000080  00000-0  22790-4 0  9990
2 27939  97.9722 205.4690 0014219 118.3413 315.2962 14.66661508771479
CUBESAT XI 5
1 28895U 05043F   18062.92007949 +.00000106 +00000-0 +29163-4 0  9993
2 28895 097.8923 218.7330 0017686 045.9356 314.3300 14.63514245658240
CUTE-1.7+APD II
1 32785U 08021C   18063.15125533  .00000186  00000-0  25822-4 0  9997
2 32785  97.5524  80.3185 0013856  32.8411 327.3665 14.88069918533553
DELFI C3
1 32789U 08021G   18062.92865065 +.00000593 +00000-0 +45088-4 0  9994
2 32789 097.5255 120.3511 0011001 300.1161 059.8975 15.05785683535848
SEEDS
1 32791U 08021J   18062.87337630  .00000372  00000-0  43510-4 0  9996
2 32791  97.5439  85.1633 0013700  15.8410 344.3234 14.90479030533828
YUBELEINY
1 32953U 08025A   18063.49010785  .00000005  00000-0 -37180-4 0  9998
2 32953  82.4990  77.7911 0020360  79.2338 281.1032 12.43082085443765
PRISM (HITOMI)
1 33493U 09002B   18063.36930002 -.00000119  00000-0 -48863-5 0  9991
2 33493  98.1413 321.3849 0014733 308.3846  51.6041 14.96089442494674
KKS-1 (KISEKI)
1 33499U 09002H   18063.52860470  .00000069  00000-0  18307-4 0  9997
2 33499  98.3504 241.9176 0007981 265.0244  95.0053 14.75299301489742
SWISSCUBE
1 35932U 09051B   18063.37183805  .00000119  00000-0  37813-4 0  9997
2 35932  98.5281 212.1087 0008103 164.3608 195.7841 14.56126295448189
BEESAT
1 35933U 09051C   18062.85696636 +.00000095 +00000-0 +32385-4 0  9993
2 35933 098.5321 213.0617 0006011 175.9491 184.1756 14.56233823448215
ITUPSAT 1
1 35935U 09051E   18062.92110552 +.00000085 +00000-0 +30763-4 0  9998
2 35935 098.5433 213.3816 0008392 173.6397 186.4908 14.55414854447980
XIWANG-1 (HOPE-1)
1 36122U 09072B   18062.89758462 -.00000061 +00000-0 -50278-4 0  9993
2 36122 100.0828 082.4295 0007448 001.1551 358.9579 13.16343663394795
TISAT 1
1 36799U 10035E   18063.40760776  .00000301  00000-0  36724-4 0  9998
2 36799  98.0891 196.9593 0012340 186.4290 173.6770 14.90709131414547
JUGNU
1 37839U 11058B   18062.95419791 +.00000318 +00000-0 +27441-4 0  9991
2 37839 019.9619 315.3631 0019013 166.7997 265.3950 14.12610851330362
SRMSAT
1 37841U 11058D   18062.96573640 +.00000306 +00000-0 +23015-4 0  9999
2 37841 019.9732 002.3233 0011908 055.8149 025.8557 14.10599560329916
M-CUBED/EXP-1 PRIME
1 37855U 11061F   18063.51618024  .00001590  00000-0  89128-4 0  9999
2 37855 101.7258  72.4798 0177579  31.9662 329.2176 15.04112353345911
HORYU 2
1 38340U 12025D   18063.10032571  .00000160  00000-0  31655-4 0  9996
2 38340  98.3735  81.1755 0011621 179.2349 180.8879 14.75506332311617
STRAND 1
1 39090U 13009E   18063.17307953  .00000014  00000-0  20176-4 0  9992
2 39090  98.5316 270.8588 0008157 246.8003 113.2323 14.35012994262763
SOMP
1 39134U 13015E   18063.52046544  .00001215  00000-0  67341-4 0  9992
2 39134  64.8626 105.4106 0022519 224.8524 135.0784 15.18856778269008
BEESAT 3
1 39135U 13015F   18062.58117778 +.00000669 +00000-0 +44121-4 0  9999
2 39135 064.8685 120.4520 0028467 247.0722 112.7398 15.16427968268247
BEESAT 2
1 39136U 13015G   18062.77804791 +.00000702 +00000-0 +46408-4 0  9997
2 39136 064.8696 122.3223 0029180 246.9785 112.8263 15.15909991268221
CUBEBUG 1
1 39153U 13018D   18063.20388242  .00000184  00000-0  31079-4 0  9998
2 39153  97.9777 159.0837 0015636 287.4803  72.4699 14.80347545262058
ZACUBE
1 39417U 13066B   18063.51772384  .00000196  00000-0  31080-4 0  9997
2 39417  97.5994  97.6826 0060277 137.0193 223.5752 14.80883568231309
TRITON 1
1 39427U 13066M   18063.51110818  .00000115  00000-0  26689-4 0  9996
2 39427  97.6387  66.3969 0112953 234.3325 124.7325 14.67617303229228
GOMX 1
1 39430U 13066Q   18063.51537746  .00000185  00000-0  43008-4 0  9994
2 39430  97.6878  47.9915 0150435 301.3107  57.3439 14.59032754227882
HUMSAT D
1 39433U 13066T   18062.80101276 +.00000281 +00000-0 +33059-4 0  9995
2 39433 097.6180 122.7987 0032448 074.6393 285.8408 14.91762280231533
50 SAT
1 39436U 13066W   18063.33982464  .00107818  00000-0  12279-2 0  9996
2 39436  97.7126 191.1784 0006026 229.3734 130.7000 15.61889836236876
CUBEBUG 2
1 39440U 13066AA  18063.10571296  .00000154  00000-0  28531-4 0  9998
2 39440  97.6084  84.5503 0080758 175.7548 184.4365 14.75619181230421
FUNCUBE 1
1 39444U 13066AE  18062.89285511 +.00000233 +00000-0 +35174-4 0  9998
2 39444 097.6006 098.4815 0059480 134.9231 225.6831 14.81649215229470
UWE-3
1 39446U 13066AG  18062.56382425 +.00000183 +00000-0 +31079-4 0  9990
2 39446 097.6027 090.0458 0070906 159.1174 201.2960 14.78152141228922
SPROUT
1 39770U 14029E   18063.53733629  .00000981  00000-0  11651-3 0  9993
2 39770  97.8725 165.5039 0008967 183.2269 176.8896 14.86694697204816
UNISAT 6
1 40012U 14033C   18063.18363822  .00000158  00000-0  31132-4 0  9997
2 40012  97.8241 303.2515 0058495 176.1503 184.0168 14.73770692199231
DUCHIFAT 1
1 40021U 14033M   18063.18055296  .00000453  00000-0  52611-4 0  9993
2 40021  97.9176 341.7113 0013303 158.7055 201.4719 14.90211737201315
QB50P1
1 40025U 14033R   18062.88931249  .00000251  00000-0  32881-4 0  9997
2 40025  97.9086 338.4916 0012725 165.0938 195.0656 14.88646017201128
CHUBUSAT 1
1 40300U 14070C   18063.45667977  .00000648  00000-0  31859-4 0  9996
2 40300  97.3721 143.3630 0018601 270.6365 186.2367 15.21407771184352
NUDT-PHONESAT
1 40900U 15049B   18062.98506874  .00001858  00000-0  87092-4 0  9998
2 40900  97.4433  72.4748 0014742  43.1788 317.0600 15.20848995135924
ZDPS 2A
1 40901U 15049C   18063.52822820  .00000866  00000-0  47297-4 0  9993
2 40901  97.4601  71.5184 0014995  46.6344 313.6136 15.16883957135795
ZDPS 2B
1 40902U 15049D   18063.15810733  .00000723  00000-0  40245-4 0  9991
2 40902  97.4492  69.3522 0015015  45.1016 315.1433 15.16688339135726
XW-2A
1 40903U 15049E   18063.51815829  .00001785  00000-0  46635-4 0  9991
2 40903  97.3970  97.2861 0015722  52.4859 307.7813 15.40065048137694
KAITUO 1A
1 40904U 15049F   18063.52538505  .00000520  00000-0  31377-4 0  9999
2 40904  97.4583  69.0740 0016055  44.6234  70.8089 15.14901835135650
OBJECT G
1 40905U 15049G   18063.19009632  .00000348  00000-0  22774-4 0  9996
2 40905  97.4578  66.9971 0016857  38.9386 321.3057 15.13871953135533
XW-2C
1 40906U 15049H   18063.50767513  .00000623  00000-0  36748-4 0  9993
2 40906  97.4599  68.9305 0016089  38.0173 322.2191 15.15038512135641
XW-2D
1 40907U 15049J   18063.53622150  .00000677  00000-0  39494-4 0  9994
2 40907  97.4572  68.6691 0015416  36.1639 324.0633 15.15178061135653
LILACSAT 2
1 40908U 15049K   18062.95585080 +.00000350 +00000-0 +23174-4 0  9996
2 40908 097.4680 067.5913 0017079 038.1843 322.0595 15.13419755135454
XW-2F
1 40910U 15049M   18062.97071985  .00000940  00000-0  51875-4 0  9999
2 40910  97.4578  69.2400 0016095  34.2917 325.9352 15.16294166135519
XW-2B
1 40911U 15049N   18063.21977765  .00000592  00000-0  35047-4 0  9995
2 40911  97.4609  68.8554 0015357  37.7266 322.5040 15.15125531135509
